Detroit, MI

3:10 PM EDT on September 25, 2016 (GMT -0400)
Detroit City

Weather History for KDET - April, 2014

Change the Weather History Date:

Monday, April 7, 2014

  Actual Average Record
Temperature  
Mean Temperature 44 °F -  
Max Temperature 53 °F 53 °F 83 °F (1991)
Min Temperature 36 °F 35 °F 17 °F (1982)
Degree Days  
Heating Degree Days 20    
Moisture  
Dew Point 32 °F    
Average Humidity 64    
Maximum Humidity 85    
Minimum Humidity 43    
Precipitation  
Precipitation 0.26 in - - ()
Sea Level Pressure  
Sea Level Pressure 29.72 in    
Wind  
Wind Speed 6 mph (NE)    
Max Wind Speed 14 mph    
Max Gust Speed -    
Visibility 8 miles    
Events Rain    
Averages and records for this station are not official NWS values.
T = Trace of Precipitation, MM = Missing Value Source: NWS Daily Summary

Daily Weather History Graph

Daily Weather History Graph

Search for Another Location

Airport or City:

Trip Planner

Search our weather history database for the weather conditions in past years. The results will help you decide how hot, cold, wet, or windy it might be!

Date:

Astronomy

Apr. 07, 2014 Rise Set
Actual Time 7:04 AM EDT 8:04 PM EDT
Civil Twilight 6:35 AM EDT 8:33 PM EDT
Nautical Twilight 6:01 AM EDT 9:07 PM EDT
Astronomical Twilight 5:25 AM EDT 9:43 PM EDT
Moon 12:56 PM EDT (4/7) 2:44 AM EDT (4/7)
Length of Visible Light 13h 57m
Length of Day
13h 00m
First Quarter, 53% of the Moon is Illuminated
Apr 7
First Quarter
Apr 15
Full
Apr 22
Last Quarter
Apr 29
New
May 6
First Quarter

Hourly Weather History & Observations

Time (EDT) Temp. Windchill Dew Point Humidity Pressure Visibility Wind Dir Wind Speed Gust Speed Precip Events Conditions
12:53 AM 39.9 °F 37.8 °F 23.0 °F 51% 30.04 in 10.0 mi East 3.5 mph - N/A   Clear
1:53 AM 39.9 °F 37.8 °F 23.0 °F 51% 30.04 in 10.0 mi East 3.5 mph - N/A   Clear
2:53 AM 37.0 °F 34.5 °F 23.0 °F 57% 30.01 in 10.0 mi ENE 3.5 mph - N/A   Clear
3:53 AM 37.0 °F 34.5 °F 24.1 °F 59% 29.98 in 10.0 mi ENE 3.5 mph - N/A   Clear
4:53 AM 37.0 °F - 24.1 °F 59% 29.95 in 10.0 mi Calm Calm - N/A   Clear
5:53 AM 36.0 °F 33.3 °F 24.1 °F 62% 29.92 in 10.0 mi NNE 3.5 mph - N/A   Clear
6:53 AM 36.0 °F 33.3 °F 24.1 °F 62% 29.92 in 10.0 mi NE 3.5 mph - N/A   Clear
7:53 AM 37.9 °F 34.4 °F 25.0 °F 60% 29.91 in 10.0 mi NE 4.6 mph - N/A   Clear
8:53 AM 41.0 °F 38.0 °F 26.1 °F 55% 29.90 in 10.0 mi ENE 4.6 mph - N/A   Clear
9:53 AM 43.0 °F 40.3 °F 26.1 °F 51% 29.88 in 10.0 mi NE 4.6 mph - N/A   Clear
10:53 AM 45.0 °F 40.6 °F 26.1 °F 48% 29.88 in 10.0 mi East 8.1 mph - N/A   Clear
11:53 AM 46.0 °F 41.4 °F 26.1 °F 46% 29.82 in 10.0 mi NE 9.2 mph - N/A   Partly Cloudy
12:53 PM 50.0 °F - 28.0 °F 43% 29.79 in 10.0 mi East 11.5 mph - N/A   Partly Cloudy
1:53 PM 50.0 °F - 28.0 °F 43% 29.73 in 10.0 mi NE 11.5 mph - N/A   Overcast
2:53 PM 51.1 °F - 30.0 °F 44% 29.68 in 10.0 mi East 13.8 mph - N/A   Mostly Cloudy
3:53 PM 53.6 °F - 32.0 °F 44% 29.62 in 10.0 mi ENE 9.2 mph - N/A   Overcast
4:53 PM 51.1 °F - 30.9 °F 46% 29.62 in 10.0 mi ENE 8.1 mph - N/A   Overcast
5:53 PM 46.9 °F - 37.0 °F 68% 29.65 in 7.0 mi East 4.6 mph - 0.04 in Rain Light Rain
6:53 PM 45.0 °F 39.7 °F 39.0 °F 80% 29.59 in 6.0 mi NE 10.4 mph - 0.11 in Rain Light Rain
7:46 PM 44.6 °F 40.2 °F 39.2 °F 81% 29.56 in 6.0 mi NNE 8.1 mph - 0.04 in Rain Light Rain
7:53 PM 45.0 °F 39.3 °F 39.0 °F 80% 29.55 in 6.0 mi NNE 11.5 mph - 0.04 in Rain Light Rain
8:38 PM 44.6 °F 39.2 °F 39.2 °F 81% 29.53 in 7.0 mi North 10.4 mph - 0.01 in Rain Light Rain
8:53 PM 44.1 °F 39.0 °F 39.9 °F 85% 29.54 in 6.0 mi North 9.2 mph - 0.03 in Rain Light Rain
9:16 PM 44.6 °F 39.2 °F 39.2 °F 81% 29.53 in 7.0 mi North 10.4 mph - 0.00 in Rain Light Rain
9:33 PM 44.6 °F 40.7 °F 39.2 °F 81% 29.54 in 6.0 mi North 6.9 mph - 0.01 in Rain Light Rain
9:53 PM 44.1 °F 40.1 °F 39.9 °F 85% 29.54 in 6.0 mi North 6.9 mph - 0.02 in Rain Light Rain
10:53 PM 44.1 °F 39.5 °F 39.9 °F 85% 29.50 in 7.0 mi North 8.1 mph - 0.02 in Rain Light Rain
11:18 PM 44.6 °F 39.2 °F 39.2 °F 81% 29.47 in 6.0 mi NNE 10.4 mph - 0.00 in Rain Light Rain
11:28 PM 44.6 °F 39.7 °F 39.2 °F 81% 29.48 in 6.0 mi NNE 9.2 mph - 0.00 in   Overcast
11:53 PM 44.1 °F 38.6 °F 39.9 °F 85% 29.48 in 6.0 mi North 10.4 mph - 0.00 in   Overcast